Location: Berlin
(42.3812°N, 71.6370°W)
Time: 04:59:48
(UTC+00:00)

Cosmos 2292 Rocket - Pass Details

Date: 15 November 2025
Orbit: 369 x 1244 km, 83.0° (Epoch: 09 December)

Event Time Altitude Azimuth Distance (km) Brightness Sun altitude
Exits shadow 09:17:33 75° 243° (WSW) 832 3.9 -25.8°
Maximum altitude 09:17:49 78° 279° (W) 832 3.9 -25.8°
Drops below altitude 10° 09:24:02 10° 5° (N) 2,729 6.9 -24.7°
Sets 09:26:53 0° 7° (N) 3,814 7.6 -24.1°
